Time,TemperatureF,DewpointF,PressureIn,WindDirection,WindDirectionDegrees,WindSpeedMPH,WindSpeedGustMPH,Humidity,HourlyPrecipIn,Conditions,Clouds,dailyrainin,SoftwareType,DateUTC
2013-01-13 05:34:00,33.9,32.0,29.45,SSW,203,0.0,0.0,93,0.00,,,0.00,WUHU216HW,2013-01-13 14:34:00,
2013-01-13 05:39:00,33.8,31.9,29.46,SSW,203,0.0,0.0,93,0.00,,,0.00,WUHU216HW,2013-01-13 14:39:00,
2013-01-13 05:44:00,33.9,32.0,29.46,SSW,203,0.0,0.0,93,0.00,,,0.00,WUHU216HW,2013-01-13 14:44:00,
2013-01-13 05:49:00,33.9,32.0,29.46,SSW,203,0.0,0.0,93,0.00,,,0.00,WUHU216HW,2013-01-13 14:49:00,
2013-01-13 05:55:00,33.9,32.0,29.46,SSW,203,0.0,0.0,93,0.00,,,0.00,WUHU216HW,2013-01-13 14:55:00,
2013-01-13 06:00:00,33.8,31.9,29.46,SSW,203,0.0,0.0,93,0.00,,,0.00,WUHU216HW,2013-01-13 15:00:00,
2013-01-13 06:05:00,33.6,31.7,29.46,SSW,203,0.0,0.0,93,0.00,,,0.00,WUHU216HW,2013-01-13 15:05:00,
2013-01-13 06:11:00,33.6,31.7,29.47,SSW,203,0.0,0.0,93,0.00,,,0.00,WUHU216HW,2013-01-13 15:11:00,
2013-01-13 06:16:00,33.6,31.7,29.47,SSW,203,0.0,0.0,93,0.00,,,0.00,WUHU216HW,2013-01-13 15:16:00,
2013-01-13 06:22:00,33.6,31.7,29.48,SSW,203,0.0,0.0,93,0.00,,,0.00,WUHU216HW,2013-01-13 15:22:00,
2013-01-13 06:27:00,33.6,31.7,29.47,SSW,203,0.0,0.0,93,0.00,,,0.00,WUHU216HW,2013-01-13 15:27:00,
2013-01-13 06:32:00,33.6,31.7,29.47,SSW,203,0.0,0.0,93,0.00,,,0.00,WUHU216HW,2013-01-13 15:32:00,
2013-01-13 06:37:00,33.6,31.7,29.47,SSW,203,0.0,0.0,93,0.00,,,0.00,WUHU216HW,2013-01-13 15:37:00,
2013-01-13 06:42:00,33.6,31.7,29.47,SSW,203,0.0,0.0,93,0.00,,,0.00,WUHU216HW,2013-01-13 15:42:00,
2013-01-13 06:47:00,33.6,31.7,29.47,SSW,203,0.0,0.0,93,0.00,,,0.00,WUHU216HW,2013-01-13 15:47:00,
2013-01-13 06:52:00,33.4,31.5,29.47,SSW,203,0.0,0.0,93,0.00,,,0.00,WUHU216HW,2013-01-13 15:52:00,
2013-01-13 06:57:00,33.6,31.7,29.48,SSW,203,0.0,0.0,93,0.00,,,0.00,WUHU216HW,2013-01-13 15:57:00,
2013-01-13 07:02:00,33.6,31.7,29.47,SSW,203,0.0,0.0,93,0.00,,,0.00,WUHU216HW,2013-01-13 16:02:00,
2013-01-13 07:07:00,33.6,31.7,29.47,SSW,203,0.0,0.0,93,0.00,,,0.00,WUHU216HW,2013-01-13 16:07:00,
2013-01-13 07:12:00,33.9,32.0,29.47,SSW,203,0.0,0.0,93,0.00,,,0.00,WUHU216HW,2013-01-13 16:12:00,
2013-01-13 07:17:00,33.9,32.0,29.47,SSW,203,0.0,0.0,93,0.00,,,0.00,WUHU216HW,2013-01-13 16:17:00,
2013-01-13 07:22:00,33.8,31.9,29.47,SSW,203,0.0,0.0,93,0.00,,,0.00,WUHU216HW,2013-01-13 16:22:00,
2013-01-13 07:27:00,33.8,31.9,29.48,SSW,203,0.0,0.0,93,0.00,,,0.00,WUHU216HW,2013-01-13 16:27:00,
2013-01-13 07:32:00,33.8,31.9,29.47,SSW,203,0.0,0.0,93,0.00,,,0.00,WUHU216HW,2013-01-13 16:32:00,
2013-01-13 07:37:00,33.8,31.9,29.47,SSW,203,0.0,0.0,93,0.00,,,0.00,WUHU216HW,2013-01-13 16:37:00,
2013-01-13 07:42:00,33.6,31.7,29.47,SSW,203,0.0,0.0,93,0.00,,,0.00,WUHU216HW,2013-01-13 16:42:00,
2013-01-13 07:47:00,33.6,31.7,29.47,SSW,203,0.0,0.0,93,0.00,,,0.00,WUHU216HW,2013-01-13 16:47:00,
2013-01-13 07:52:00,33.6,31.7,29.47,SSW,203,0.0,0.0,93,0.00,,,0.00,WUHU216HW,2013-01-13 16:52:00,
2013-01-13 07:57:00,33.6,31.7,29.47,SSW,203,0.0,0.0,93,0.00,,,0.00,WUHU216HW,2013-01-13 16:57:00,
2013-01-13 08:02:00,33.6,31.7,29.47,SSW,203,0.0,0.0,93,0.00,,,0.00,WUHU216HW,2013-01-13 17:02:00,
2013-01-13 08:07:00,33.6,31.7,29.47,SSW,203,0.0,0.0,93,0.00,,,0.00,WUHU216HW,2013-01-13 17:07:00,
2013-01-13 08:12:00,33.6,31.7,29.47,SSW,203,0.0,0.0,93,0.00,,,0.00,WUHU216HW,2013-01-13 17:12:00,
2013-01-13 08:17:00,33.6,31.7,29.47,SSW,203,0.0,0.0,93,0.00,,,0.00,WUHU216HW,2013-01-13 17:17:00,
2013-01-13 08:22:00,33.4,31.5,29.47,SSW,203,0.0,0.0,93,0.00,,,0.00,WUHU216HW,2013-01-13 17:22:00,
2013-01-13 08:27:00,33.4,31.5,29.47,SSW,203,0.0,0.0,93,0.00,,,0.00,WUHU216HW,2013-01-13 17:27:00,
2013-01-13 08:32:00,33.4,31.5,29.46,SSW,203,0.0,0.0,93,0.00,,,0.00,WUHU216HW,2013-01-13 17:32:00,
2013-01-13 08:37:00,33.4,31.5,29.45,SSW,203,0.0,0.0,93,0.00,,,0.00,WUHU216HW,2013-01-13 17:37:00,
2013-01-13 08:42:00,33.2,31.4,29.45,SSW,203,0.0,0.0,93,0.00,,,0.00,WUHU216HW,2013-01-13 17:42:00,
2013-01-13 08:47:00,33.4,31.5,29.45,SSW,203,0.0,0.0,93,0.00,,,0.00,WUHU216HW,2013-01-13 17:47:00,
2013-01-13 08:52:00,33.4,31.5,29.45,SSW,203,0.0,0.0,93,0.00,,,0.00,WUHU216HW,2013-01-13 17:52:00,
2013-01-13 08:57:00,33.4,31.5,29.45,SSW,203,0.0,0.0,93,0.00,,,0.00,WUHU216HW,2013-01-13 17:57:00,
2013-01-13 09:02:00,33.4,31.5,29.46,SSW,203,0.0,0.0,93,0.00,,,0.00,WUHU216HW,2013-01-13 18:02:00,
2013-01-13 09:07:00,33.4,31.5,29.46,SSW,203,0.0,0.0,93,0.00,,,0.00,WUHU216HW,2013-01-13 18:07:00,
2013-01-13 09:12:00,33.4,31.5,29.46,SSW,203,0.0,0.0,93,0.00,,,0.00,WUHU216HW,2013-01-13 18:12:00,
2013-01-13 09:17:00,33.4,31.5,29.45,SSW,203,0.0,0.0,93,0.00,,,0.00,WUHU216HW,2013-01-13 18:17:00,
2013-01-13 09:22:00,33.6,31.7,29.45,SSW,203,0.0,0.0,93,0.00,,,0.00,WUHU216HW,2013-01-13 18:22:00,
2013-01-13 09:27:00,33.6,31.7,29.45,SSW,203,0.0,0.0,93,0.00,,,0.00,WUHU216HW,2013-01-13 18:27:00,
2013-01-13 09:32:00,33.6,31.7,29.44,SSW,203,0.0,0.0,93,0.00,,,0.00,WUHU216HW,2013-01-13 18:32:00,
2013-01-13 09:37:00,33.6,31.7,29.44,SSW,203,0.0,0.0,93,0.00,,,0.00,WUHU216HW,2013-01-13 18:37:00,
2013-01-13 09:42:00,33.6,32.0,29.44,NE,45,0.0,0.0,94,0.00,,,0.00,WUHU216HW,2013-01-13 18:42:00,
2013-01-13 09:47:00,33.8,31.9,29.44,NE,45,0.0,0.0,93,0.00,,,0.00,WUHU216HW,2013-01-13 18:47:00,
2013-01-13 09:52:00,33.8,31.9,29.44,NE,45,0.0,0.0,93,0.00,,,0.00,WUHU216HW,2013-01-13 18:52:00,
2013-01-13 09:57:00,33.8,31.9,29.44,NE,45,0.0,0.0,93,0.02,,,0.02,WUHU216HW,2013-01-13 18:57:00,
2013-01-13 10:02:00,33.8,31.9,29.44,NE,45,0.0,0.0,93,0.02,,,0.02,WUHU216HW,2013-01-13 19:02:00,
2013-01-13 10:08:00,33.8,31.9,29.44,NE,45,0.0,0.0,93,0.02,,,0.02,WUHU216HW,2013-01-13 19:08:00,
2013-01-13 10:13:00,33.8,31.9,29.44,NE,45,0.0,0.0,93,0.02,,,0.02,WUHU216HW,2013-01-13 19:13:00,
2013-01-13 10:18:00,33.9,32.0,29.44,NE,45,0.0,0.0,93,0.02,,,0.02,WUHU216HW,2013-01-13 19:18:00,
2013-01-13 10:23:00,33.9,32.0,29.44,NE,45,0.0,0.0,93,0.02,,,0.02,WUHU216HW,2013-01-13 19:23:00,
2013-01-13 10:28:00,33.9,32.0,29.45,NE,45,0.0,0.0,93,0.02,,,0.02,WUHU216HW,2013-01-13 19:28:00,
2013-01-13 10:33:00,33.9,32.0,29.44,NE,45,0.0,0.0,93,0.02,,,0.02,WUHU216HW,2013-01-13 19:33:00,
2013-01-13 10:38:00,34.1,32.2,29.44,NE,45,0.0,0.0,93,0.02,,,0.02,WUHU216HW,2013-01-13 19:38:00,
2013-01-13 10:43:00,34.1,32.2,29.44,NE,45,0.0,0.0,93,0.02,,,0.02,WUHU216HW,2013-01-13 19:43:00,
2013-01-13 10:48:00,34.1,32.2,29.45,ESE,113,0.0,0.0,93,0.02,,,0.02,WUHU216HW,2013-01-13 19:48:00,
2013-01-13 10:53:00,34.3,32.4,29.44,SSE,158,0.0,0.0,93,0.02,,,0.02,WUHU216HW,2013-01-13 19:53:00,
2013-01-13 10:58:00,34.3,32.4,29.44,South,180,0.0,0.0,93,0.00,,,0.02,WUHU216HW,2013-01-13 19:58:00,
2013-01-13 11:03:00,34.3,32.4,29.44,South,180,0.0,0.0,93,0.00,,,0.02,WUHU216HW,2013-01-13 20:03:00,
2013-01-13 11:08:00,34.3,32.4,29.44,South,180,0.0,0.0,93,0.00,,,0.02,WUHU216HW,2013-01-13 20:08:00,
2013-01-13 11:13:00,34.3,32.4,29.44,SSW,203,0.0,0.0,93,0.00,,,0.02,WUHU216HW,2013-01-13 20:13:00,
2013-01-13 11:18:00,34.5,32.6,29.44,SSW,203,0.0,0.0,93,0.00,,,0.02,WUHU216HW,2013-01-13 20:18:00,
2013-01-13 11:23:00,34.5,32.6,29.44,SSW,203,0.0,0.0,93,0.00,,,0.02,WUHU216HW,2013-01-13 20:23:00,
2013-01-13 11:28:00,34.7,32.8,29.44,SSW,203,0.0,0.0,93,0.00,,,0.02,WUHU216HW,2013-01-13 20:28:00,
2013-01-13 11:33:00,34.7,32.8,29.43,SSE,158,0.0,0.0,93,0.00,,,0.02,WUHU216HW,2013-01-13 20:33:00,
2013-01-13 11:38:00,34.8,32.9,29.43,SSE,158,0.0,0.0,93,0.00,,,0.02,WUHU216HW,2013-01-13 20:38:00,
2013-01-13 11:43:00,35.2,33.6,29.42,SE,135,0.0,4.4,94,0.00,,,0.02,WUHU216HW,2013-01-13 20:43:00,
2013-01-13 11:48:00,35.7,34.1,29.42,SE,135,0.0,4.4,94,0.00,,,0.02,WUHU216HW,2013-01-13 20:48:00,
2013-01-13 11:53:00,35.9,34.3,29.42,ESE,113,2.2,2.2,94,0.00,,,0.02,WUHU216HW,2013-01-13 20:53:00,
2013-01-13 11:58:00,36.3,34.7,29.42,SE,135,1.3,2.2,94,0.00,,,0.02,WUHU216HW,2013-01-13 20:58:00,
2013-01-13 12:03:00,36.6,35.0,29.42,SSE,158,0.0,3.8,94,0.00,,,0.02,WUHU216HW,2013-01-13 21:03:00,
2013-01-13 12:08:00,37.0,35.4,29.42,SE,135,0.0,3.8,94,0.00,,,0.02,WUHU216HW,2013-01-13 21:08:00,
2013-01-13 12:13:00,37.2,35.6,29.41,ESE,113,0.0,1.1,94,0.00,,,0.02,WUHU216HW,2013-01-13 21:13:00,
2013-01-13 12:18:00,37.2,35.6,29.41,ESE,113,0.0,1.1,94,0.00,,,0.02,WUHU216HW,2013-01-13 21:18:00,
2013-01-13 12:23:00,37.5,35.9,29.41,ESE,113,0.0,0.0,94,0.02,,,0.04,WUHU216HW,2013-01-13 21:23:00,
2013-01-13 12:28:00,37.5,35.9,29.40,ESE,113,8.0,8.0,94,0.02,,,0.04,WUHU216HW,2013-01-13 21:28:00,
2013-01-13 12:33:00,37.7,36.1,29.40,SE,135,4.0,8.0,94,0.02,,,0.04,WUHU216HW,2013-01-13 21:33:00,
2013-01-13 12:38:00,37.7,36.1,29.40,NE,45,0.0,8.0,94,0.02,,,0.04,WUHU216HW,2013-01-13 21:38:00,
2013-01-13 12:43:00,37.7,36.1,29.39,East,90,2.0,2.0,94,0.02,,,0.04,WUHU216HW,2013-01-13 21:43:00,
2013-01-13 12:49:00,37.7,36.1,29.39,NE,45,0.0,2.0,94,0.02,,,0.04,WUHU216HW,2013-01-13 21:49:00,
2013-01-13 12:54:00,37.5,35.9,29.39,ENE,68,0.0,1.3,94,0.02,,,0.04,WUHU216HW,2013-01-13 21:54:00,
2013-01-13 12:59:00,37.5,35.9,29.39,East,90,0.0,0.0,94,0.04,,,0.06,WUHU216HW,2013-01-13 21:59:00,
2013-01-13 13:04:00,37.5,35.9,29.39,ESE,113,0.0,4.4,94,0.04,,,0.06,WUHU216HW,2013-01-13 22:04:00,
2013-01-13 13:09:00,37.5,35.9,29.38,NE,45,5.1,5.1,94,0.04,,,0.06,WUHU216HW,2013-01-13 22:09:00,
2013-01-13 13:14:00,37.4,35.9,29.38,NE,45,0.0,5.1,94,0.04,,,0.06,WUHU216HW,2013-01-13 22:14:00,
2013-01-13 13:19:00,37.4,35.7,29.38,ENE,68,0.0,0.0,94,0.04,,,0.06,WUHU216HW,2013-01-13 22:19:00,
2013-01-13 13:24:00,37.4,35.7,29.38,NE,45,0.0,0.0,94,0.02,,,0.06,WUHU216HW,2013-01-13 22:24:00,
2013-01-13 13:29:00,37.4,35.7,29.37,NE,45,0.0,0.0,94,0.02,,,0.06,WUHU216HW,2013-01-13 22:29:00,
2013-01-13 13:34:00,37.4,35.7,29.37,NE,45,0.0,0.0,94,0.02,,,0.06,WUHU216HW,2013-01-13 22:34:00,
2013-01-13 13:39:00,37.2,35.6,29.37,NE,45,0.0,0.0,94,0.02,,,0.06,WUHU216HW,2013-01-13 22:39:00,
2013-01-13 13:44:00,37.2,35.6,29.36,NE,45,0.0,0.0,94,0.02,,,0.06,WUHU216HW,2013-01-13 22:44:00,
2013-01-13 13:49:00,37.2,35.6,29.36,NE,45,0.0,0.0,94,0.02,,,0.06,WUHU216HW,2013-01-13 22:49:00,
2013-01-13 13:54:00,37.0,35.4,29.36,NE,45,0.0,0.0,94,0.00,,,0.06,WUHU216HW,2013-01-13 22:54:00,
2013-01-13 13:59:00,36.8,35.2,29.35,NE,45,0.0,0.0,94,0.00,,,0.06,WUHU216HW,2013-01-13 22:59:00,
2013-01-13 14:04:00,36.8,35.2,29.35,NE,45,0.0,0.0,94,0.02,,,0.07,WUHU216HW,2013-01-13 23:04:00,
2013-01-13 14:09:00,36.8,35.2,29.35,NE,45,0.0,0.0,94,0.02,,,0.07,WUHU216HW,2013-01-13 23:09:00,
2013-01-13 14:14:00,36.6,35.0,29.34,NE,45,0.0,0.0,94,0.02,,,0.07,WUHU216HW,2013-01-13 23:14:00,
2013-01-13 14:19:00,36.6,35.0,29.34,NE,45,0.0,0.0,94,0.02,,,0.07,WUHU216HW,2013-01-13 23:19:00,
2013-01-13 14:24:00,36.5,34.8,29.34,NE,45,0.0,0.0,94,0.02,,,0.07,WUHU216HW,2013-01-13 23:24:00,
2013-01-13 14:29:00,36.6,35.0,29.34,NE,45,0.0,0.0,94,0.04,,,0.07,WUHU216HW,2013-01-13 23:29:00,
2013-01-13 14:34:00,36.6,35.0,29.33,NE,45,0.0,0.0,94,0.04,,,0.10,WUHU216HW,2013-01-13 23:34:00,
2013-01-13 14:39:00,36.6,35.0,29.32,NE,45,0.0,0.0,94,0.04,,,0.10,WUHU216HW,2013-01-13 23:39:00,
2013-01-13 14:44:00,36.5,34.8,29.32,NE,45,0.0,0.0,94,0.04,,,0.10,WUHU216HW,2013-01-13 23:44:00,
2013-01-13 14:49:00,36.5,34.8,29.32,NE,45,0.0,0.0,94,0.04,,,0.10,WUHU216HW,2013-01-13 23:49:00,
2013-01-13 14:54:00,36.5,34.8,29.32,NE,45,0.0,0.0,94,0.04,,,0.10,WUHU216HW,2013-01-13 23:54:00,
2013-01-13 14:59:00,36.5,34.8,29.32,NE,45,0.0,0.0,94,0.04,,,0.10,WUHU216HW,2013-01-13 23:59:00,
2013-01-13 15:05:00,36.5,34.8,29.31,NE,45,0.0,0.0,94,0.02,,,0.10,WUHU216HW,2013-01-14 00:05:00,
2013-01-13 15:10:00,36.5,34.8,29.31,NE,45,0.0,0.0,94,0.02,,,0.10,WUHU216HW,2013-01-14 00:10:00,
2013-01-13 15:15:00,36.3,34.7,29.31,NE,45,0.0,0.0,94,0.02,,,0.10,WUHU216HW,2013-01-14 00:15:00,
2013-01-13 15:20:00,36.5,34.8,29.31,NE,45,0.0,0.0,94,0.02,,,0.10,WUHU216HW,2013-01-14 00:20:00,
2013-01-13 15:25:00,36.5,34.8,29.30,NE,45,0.0,0.0,94,0.02,,,0.10,WUHU216HW,2013-01-14 00:25:00,
2013-01-13 15:30:00,36.3,34.7,29.29,NNE,23,0.0,0.0,94,0.00,,,0.10,WUHU216HW,2013-01-14 00:30:00,
2013-01-13 15:35:00,36.3,34.7,29.29,NNE,23,0.0,0.0,94,0.00,,,0.10,WUHU216HW,2013-01-14 00:35:00,
2013-01-13 15:40:00,36.5,34.8,29.29,NE,45,0.0,0.0,94,0.00,,,0.10,WUHU216HW,2013-01-14 00:40:00,
2013-01-13 15:45:00,36.5,34.8,29.28,NE,45,0.0,0.0,94,0.00,,,0.10,WUHU216HW,2013-01-14 00:45:00,
2013-01-13 15:50:00,36.5,34.8,29.28,NE,45,0.0,0.0,94,0.00,,,0.10,WUHU216HW,2013-01-14 00:50:00,
2013-01-13 15:55:00,36.5,34.8,29.28,NE,45,0.0,0.0,94,0.00,,,0.10,WUHU216HW,2013-01-14 00:55:00,
2013-01-13 16:00:00,36.6,35.0,29.28,NE,45,0.0,0.0,94,0.00,,,0.10,WUHU216HW,2013-01-14 01:00:00,
2013-01-13 16:05:00,36.5,34.8,29.27,NE,45,0.0,0.0,94,0.00,,,0.10,WUHU216HW,2013-01-14 01:05:00,
2013-01-13 16:10:00,36.3,34.7,29.27,NE,45,0.0,0.0,94,0.00,,,0.10,WUHU216HW,2013-01-14 01:10:00,
2013-01-13 16:15:00,36.5,34.8,29.27,NE,45,0.0,0.0,94,0.00,,,0.10,WUHU216HW,2013-01-14 01:15:00,
2013-01-13 16:20:00,36.5,34.8,29.27,NE,45,0.0,0.0,94,0.00,,,0.10,WUHU216HW,2013-01-14 01:20:00,
2013-01-13 16:25:00,36.5,34.8,29.27,NE,45,0.0,0.0,94,0.00,,,0.10,WUHU216HW,2013-01-14 01:25:00,
2013-01-13 16:30:00,36.3,34.7,29.27,NE,45,0.0,0.0,94,0.00,,,0.10,WUHU216HW,2013-01-14 01:30:00,
2013-01-13 16:35:00,36.3,34.7,29.27,NE,45,0.0,0.0,94,0.00,,,0.10,WUHU216HW,2013-01-14 01:35:00,
2013-01-13 16:40:00,36.1,34.5,29.27,NE,45,0.0,0.0,94,0.00,,,0.10,WUHU216HW,2013-01-14 01:40:00,
2013-01-13 16:45:00,36.1,34.5,29.27,NE,45,0.0,0.0,94,0.00,,,0.10,WUHU216HW,2013-01-14 01:45:00,
2013-01-13 16:50:00,36.1,34.5,29.27,NE,45,0.0,0.0,94,0.00,,,0.10,WUHU216HW,2013-01-14 01:50:00,
2013-01-13 16:55:00,36.3,34.7,29.26,NE,45,0.0,0.0,94,0.00,,,0.10,WUHU216HW,2013-01-14 01:55:00,
2013-01-13 17:00:00,36.1,34.5,29.25,NE,45,0.0,0.0,94,0.00,,,0.10,WUHU216HW,2013-01-14 02:00:00,
2013-01-13 17:05:00,36.3,34.7,29.25,NE,45,0.0,0.0,94,0.00,,,0.10,WUHU216HW,2013-01-14 02:05:00,
2013-01-13 17:10:00,36.3,34.7,29.25,NE,45,0.0,0.0,94,0.00,,,0.10,WUHU216HW,2013-01-14 02:10:00,
2013-01-13 17:15:00,36.1,34.5,29.25,NE,45,0.0,0.0,94,0.00,,,0.10,WUHU216HW,2013-01-14 02:15:00,
2013-01-13 17:20:00,36.1,34.5,29.24,NE,45,0.0,0.0,94,0.00,,,0.10,WUHU216HW,2013-01-14 02:20:00,
2013-01-13 17:25:00,36.1,34.5,29.25,NE,45,0.0,0.0,94,0.00,,,0.10,WUHU216HW,2013-01-14 02:25:00,
2013-01-13 17:30:00,36.1,34.5,29.26,NE,45,0.0,0.0,94,0.00,,,0.10,WUHU216HW,2013-01-14 02:30:00,
2013-01-13 17:35:00,36.1,34.5,29.26,NE,45,0.0,0.0,94,0.00,,,0.10,WUHU216HW,2013-01-14 02:35:00,
2013-01-13 17:40:00,36.1,34.5,29.26,NE,45,0.0,0.0,94,0.00,,,0.10,WUHU216HW,2013-01-14 02:40:00,
2013-01-13 17:45:00,35.9,34.3,29.26,NE,45,0.0,0.0,94,0.00,,,0.10,WUHU216HW,2013-01-14 02:45:00,
2013-01-13 17:50:00,35.9,34.3,29.26,NE,45,0.0,0.0,94,0.00,,,0.10,WUHU216HW,2013-01-14 02:50:00,
2013-01-13 17:55:00,35.9,34.3,29.26,NE,45,0.0,0.0,94,0.00,,,0.10,WUHU216HW,2013-01-14 02:55:00,
2013-01-13 18:00:00,35.9,34.3,29.26,NE,45,0.0,0.0,94,0.00,,,0.10,WUHU216HW,2013-01-14 03:00:00,
2013-01-13 18:05:00,35.9,34.3,29.27,NE,45,0.0,0.0,94,0.02,,,0.12,WUHU216HW,2013-01-14 03:05:00,
2013-01-13 18:10:00,35.9,34.3,29.27,NE,45,0.0,0.0,94,0.02,,,0.12,WUHU216HW,2013-01-14 03:10:00,
2013-01-13 18:15:00,35.7,34.1,29.27,NE,45,0.0,0.0,94,0.04,,,0.14,WUHU216HW,2013-01-14 03:15:00,
2013-01-13 18:20:00,35.7,34.1,29.27,NE,45,0.0,0.0,94,0.04,,,0.14,WUHU216HW,2013-01-14 03:20:00,
2013-01-13 18:25:00,35.7,34.1,29.27,NE,45,0.0,0.0,94,0.04,,,0.14,WUHU216HW,2013-01-14 03:25:00,
2013-01-13 18:30:00,35.4,33.8,29.27,NE,45,0.0,0.0,94,0.04,,,0.14,WUHU216HW,2013-01-14 03:30:00,
2013-01-13 18:35:00,35.4,33.8,29.27,NE,45,0.0,0.0,94,0.04,,,0.14,WUHU216HW,2013-01-14 03:35:00,
2013-01-13 18:40:00,35.2,33.6,29.26,NE,45,0.0,0.0,94,0.06,,,0.16,WUHU216HW,2013-01-14 03:40:00,
2013-01-13 18:45:00,35.2,33.6,29.26,NE,45,0.0,0.0,94,0.06,,,0.16,WUHU216HW,2013-01-14 03:45:00,
2013-01-13 18:50:00,35.0,33.4,29.26,NE,45,0.0,0.0,94,0.06,,,0.16,WUHU216HW,2013-01-14 03:50:00,
2013-01-13 18:55:00,34.8,33.2,29.26,NE,45,0.0,0.0,94,0.06,,,0.16,WUHU216HW,2013-01-14 03:55:00,
2013-01-13 19:00:00,35.0,33.4,29.26,NE,45,0.0,0.0,94,0.06,,,0.16,WUHU216HW,2013-01-14 04:00:00,
2013-01-13 19:05:00,35.2,33.6,29.26,NE,45,0.0,0.0,94,0.04,,,0.16,WUHU216HW,2013-01-14 04:05:00,
2013-01-13 19:10:00,35.0,33.4,29.26,NE,45,0.0,0.0,94,0.02,,,0.16,WUHU216HW,2013-01-14 04:10:00,
2013-01-13 19:15:00,34.8,33.2,29.26,NE,45,0.0,0.0,94,0.04,,,0.18,WUHU216HW,2013-01-14 04:15:00,
2013-01-13 19:20:00,34.8,33.2,29.26,NE,45,0.0,0.0,94,0.04,,,0.18,WUHU216HW,2013-01-14 04:20:00,
2013-01-13 19:25:00,34.8,33.2,29.26,NE,45,0.0,0.0,94,0.04,,,0.18,WUHU216HW,2013-01-14 04:25:00,
2013-01-13 19:30:00,34.8,33.2,29.26,NE,45,0.0,0.0,94,0.04,,,0.18,WUHU216HW,2013-01-14 04:30:00,
2013-01-13 19:35:00,34.8,33.2,29.26,NE,45,0.0,0.0,94,0.04,,,0.18,WUHU216HW,2013-01-14 04:35:00,
2013-01-13 19:40:00,34.8,33.2,29.26,NE,45,0.0,0.0,94,0.02,,,0.18,WUHU216HW,2013-01-14 04:40:00,
2013-01-13 19:45:00,34.8,33.2,29.27,NE,45,0.0,0.0,94,0.02,,,0.18,WUHU216HW,2013-01-14 04:45:00,
2013-01-13 19:50:00,35.0,33.4,29.27,NE,45,0.0,0.0,94,0.04,,,0.20,WUHU216HW,2013-01-14 04:50:00,
2013-01-13 19:55:00,35.0,33.4,29.27,NE,45,0.0,0.0,94,0.04,,,0.20,WUHU216HW,2013-01-14 04:55:00,
2013-01-13 20:00:00,34.8,33.2,29.27,NE,45,0.0,0.0,94,0.04,,,0.20,WUHU216HW,2013-01-14 05:00:00,
2013-01-13 20:05:00,35.0,33.4,29.26,NE,45,0.0,0.0,94,0.06,,,0.20,WUHU216HW,2013-01-14 05:05:00,
2013-01-13 20:10:00,34.8,33.2,29.27,NE,45,0.0,0.0,94,0.04,,,0.22,WUHU216HW,2013-01-14 05:10:00,
2013-01-13 20:15:00,34.8,32.9,29.26,NE,45,0.0,0.0,93,0.04,,,0.22,WUHU216HW,2013-01-14 05:15:00,
2013-01-13 20:20:00,34.5,32.6,29.25,NE,45,0.0,0.0,93,0.04,,,0.22,WUHU216HW,2013-01-14 05:20:00,
2013-01-13 20:25:00,34.3,32.4,29.25,NE,45,0.0,0.0,93,0.04,,,0.22,WUHU216HW,2013-01-14 05:25:00,
2013-01-13 20:30:00,34.3,32.4,29.25,NE,45,0.0,0.0,93,0.04,,,0.22,WUHU216HW,2013-01-14 05:30:00,
2013-01-13 20:35:00,34.3,32.4,29.25,NE,45,0.0,0.0,93,0.04,,,0.22,WUHU216HW,2013-01-14 05:35:00,
2013-01-13 20:40:00,34.3,32.4,29.24,NE,45,0.0,0.0,93,0.04,,,0.22,WUHU216HW,2013-01-14 05:40:00,
2013-01-13 20:45:00,34.5,32.6,29.25,NE,45,0.0,0.0,93,0.02,,,0.22,WUHU216HW,2013-01-14 05:45:00,
2013-01-13 20:50:00,34.5,32.6,29.25,NE,45,0.0,0.0,93,0.02,,,0.22,WUHU216HW,2013-01-14 05:50:00,
2013-01-13 20:55:00,34.7,32.8,29.25,NE,45,0.0,0.0,93,0.02,,,0.22,WUHU216HW,2013-01-14 05:55:00,
2013-01-13 21:00:00,34.7,32.8,29.24,NE,45,0.0,0.0,93,0.02,,,0.22,WUHU216HW,2013-01-14 06:00:00,
2013-01-13 21:05:00,34.8,32.9,29.24,NE,45,0.0,0.0,93,0.00,,,0.22,WUHU216HW,2013-01-14 06:05:00,
2013-01-13 21:10:00,34.8,32.9,29.25,NE,45,0.0,0.0,93,0.00,,,0.22,WUHU216HW,2013-01-14 06:10:00,
2013-01-13 21:15:00,34.8,32.9,29.24,NE,45,0.0,0.0,93,0.00,,,0.22,WUHU216HW,2013-01-14 06:15:00,
2013-01-13 21:20:00,34.7,32.8,29.24,NE,45,0.0,0.0,93,0.00,,,0.22,WUHU216HW,2013-01-14 06:20:00,
2013-01-13 21:25:00,34.7,32.8,29.25,NE,45,0.0,0.0,93,0.00,,,0.22,WUHU216HW,2013-01-14 06:25:00,
2013-01-13 21:30:00,34.5,32.6,29.25,NE,45,0.0,0.0,93,0.00,,,0.22,WUHU216HW,2013-01-14 06:30:00,
2013-01-13 21:35:00,34.3,32.4,29.24,NE,45,0.0,0.0,93,0.00,,,0.22,WUHU216HW,2013-01-14 06:35:00,
2013-01-13 21:40:00,34.3,32.4,29.24,NE,45,0.0,0.0,93,0.00,,,0.22,WUHU216HW,2013-01-14 06:40:00,
2013-01-13 21:46:00,34.3,32.4,29.24,NE,45,0.0,0.0,93,0.00,,,0.22,WUHU216HW,2013-01-14 06:46:00,
2013-01-13 21:50:00,34.3,32.4,29.24,NE,45,0.0,0.0,93,0.00,,,0.22,WUHU216HW,2013-01-14 06:50:00,
2013-01-13 21:56:00,34.3,32.4,29.24,NE,45,0.0,0.0,93,0.00,,,0.22,WUHU216HW,2013-01-14 06:56:00,
2013-01-13 22:01:00,34.3,32.4,29.24,NE,45,0.0,0.0,93,0.00,,,0.22,WUHU216HW,2013-01-14 07:01:00,
2013-01-13 22:06:00,34.3,32.4,29.24,NE,45,0.0,0.0,93,0.00,,,0.22,WUHU216HW,2013-01-14 07:06:00,
2013-01-13 22:11:00,34.3,32.4,29.24,NE,45,0.0,0.0,93,0.00,,,0.22,WUHU216HW,2013-01-14 07:11:00,
2013-01-13 22:16:00,34.3,32.4,29.24,NE,45,0.0,0.0,93,0.00,,,0.22,WUHU216HW,2013-01-14 07:16:00,
2013-01-13 22:21:00,34.3,32.4,29.24,NE,45,0.0,0.0,93,0.00,,,0.22,WUHU216HW,2013-01-14 07:21:00,
2013-01-13 22:26:00,34.3,32.4,29.24,NE,45,0.0,0.0,93,0.00,,,0.22,WUHU216HW,2013-01-14 07:26:00,
2013-01-13 22:31:00,34.3,32.4,29.23,NE,45,0.0,0.0,93,0.00,,,0.22,WUHU216HW,2013-01-14 07:31:00,
2013-01-13 22:36:00,34.3,32.4,29.23,NE,45,0.0,0.0,93,0.00,,,0.22,WUHU216HW,2013-01-14 07:36:00,
2013-01-13 22:41:00,34.3,32.4,29.22,NE,45,0.0,0.0,93,0.00,,,0.22,WUHU216HW,2013-01-14 07:41:00,
2013-01-13 22:46:00,34.3,32.4,29.23,NE,45,0.0,0.0,93,0.00,,,0.22,WUHU216HW,2013-01-14 07:46:00,
2013-01-13 22:51:00,34.3,32.7,29.23,NE,45,0.0,0.0,94,0.00,,,0.22,WUHU216HW,2013-01-14 07:51:00,
2013-01-13 22:56:00,34.3,32.4,29.23,NE,45,0.0,0.0,93,0.00,,,0.22,WUHU216HW,2013-01-14 07:56:00,
2013-01-13 23:01:00,34.3,32.7,29.22,NE,45,0.0,0.0,94,0.00,,,0.22,WUHU216HW,2013-01-14 08:01:00,
2013-01-13 23:06:00,34.3,32.4,29.22,NE,45,0.0,0.0,93,0.00,,,0.22,WUHU216HW,2013-01-14 08:06:00,
2013-01-13 23:11:00,34.3,32.4,29.23,NE,45,0.0,0.0,93,0.00,,,0.22,WUHU216HW,2013-01-14 08:11:00,
2013-01-13 23:16:00,34.3,32.7,29.23,NE,45,0.0,0.0,94,0.00,,,0.22,WUHU216HW,2013-01-14 08:16:00,
2013-01-13 23:21:00,34.3,32.4,29.22,NE,45,0.0,0.0,93,0.00,,,0.22,WUHU216HW,2013-01-14 08:21:00,
2013-01-13 23:26:00,34.3,32.7,29.22,NE,45,0.0,0.0,94,0.00,,,0.22,WUHU216HW,2013-01-14 08:26:00,
2013-01-13 23:31:00,34.3,32.7,29.22,NE,45,0.0,0.0,94,0.00,,,0.22,WUHU216HW,2013-01-14 08:31:00,
2013-01-13 23:36:00,34.3,32.7,29.21,NE,45,0.0,0.0,94,0.00,,,0.22,WUHU216HW,2013-01-14 08:36:00,
2013-01-13 23:41:00,34.3,32.7,29.22,NE,45,0.0,0.0,94,0.00,,,0.22,WUHU216HW,2013-01-14 08:41:00,
2013-01-13 23:46:00,34.3,32.7,29.22,NE,45,0.0,0.0,94,0.00,,,0.22,WUHU216HW,2013-01-14 08:46:00,
2013-01-13 23:51:00,34.5,32.9,29.22,NE,45,0.0,0.0,94,0.00,,,0.22,WUHU216HW,2013-01-14 08:51:00,
2013-01-13 23:56:00,34.7,33.0,29.21,NE,45,0.0,0.0,94,0.00,,,0.22,WUHU216HW,2013-01-14 08:56:00,